Quillayute, WA
on Tuesday, January 15, 2013

Tuesday
Previous Day Next Day
Daily Summary
 ActualAverageRecord
Temperature
Mean Temperature °F 42°F  
Max Temperature 46°F 47°F 58°F (2009)
Min Temperature 27°F 36°F 19°F (1984)
Degree Days
Heating Degree Days 28 23  
Month to date heating degree days 357  
Since 1 July heating degree days 2835  
Cooling Degree Days 0 0  
Month to date cooling degree days 0  
Year to date cooling degree days 0  
Moisture
Dew Point 31°F   
Average Humidity 97    
Maximum Humidity 100    
Minimum Humidity 71    
Precipitation
Precipitation 0.00 in 0.51 in 2.27 in (2010)
Month to date precipitation 7.26  
Year to date precipitation 7.26  
Wind
Wind Speed 1 mph   
Max Wind Speed 6 mph   
Max Gust Speed 8 mph   
Visibility 2 miles   
Events Fog   

Key: T is trace of precipitation, MM is missing value
Source: NWS Daily Summary
Time(PST)TemperatureDew PointHumidity Pressure Visibility Wind DirectionWind SpeedGust SpeedPrecipitationEvents Conditions
12:53 AM 33.1°F 33.1°F 100% 30.58 in 0.2 miles Calm Calm - N/A Fog Fog
1:50 AM 30.2°F 30.2°F 100% 30.58 in 0.2 miles Calm Calm - N/A Fog Light Freezing Fog
1:53 AM 30.9°F 30.9°F 100% 30.59 in 0.2 miles Calm Calm - N/A Fog Light Freezing Fog
2:24 AM 30.2°F 30.2°F 100% 30.59 in 1.0 miles Calm Calm - N/A   Mist
2:26 AM 30.2°F 30.2°F 100% 30.59 in 1.5 miles Calm Calm - N/A   Scattered Clouds
2:29 AM 30.2°F 30.2°F 100% 30.59 in 3.0 miles North 3.5 mph - N/A   Scattered Clouds
2:53 AM 30.2°F 30.2°F 100% 30.60 in 6.0 miles Calm Calm - N/A   Clear
3:53 AM 30.0°F 30.0°F 100% 30.61 in 5.0 miles Calm Calm - N/A   Clear
4:04 AM 30.2°F 30.2°F 100% 30.61 in 2.5 miles East 4.6 mph - N/A   Scattered Clouds
4:06 AM 30.2°F 30.2°F 100% 30.61 in 1.2 miles East 5.8 mph - N/A   Scattered Clouds
4:08 AM 30.2°F 30.2°F 100% 30.61 in 0.8 miles East 4.6 mph - N/A   Mist
4:19 AM 30.2°F 30.2°F 100% 30.61 in 0.2 miles Calm Calm - N/A Fog Light Freezing Fog
4:53 AM 28.9°F 28.9°F 100% 30.62 in 0.5 miles Calm Calm - N/A Fog Light Freezing Fog
4:58 AM 28.4°F 28.4°F 100% 30.61 in 2.0 miles Calm Calm - N/A   Mostly Cloudy
5:06 AM 30.2°F 30.2°F 100% 30.61 in 4.0 miles Calm Calm - N/A   Scattered Clouds
5:28 AM 28.4°F 28.4°F 100% 30.61 in 1.5 miles Calm Calm - N/A   Clear
5:35 AM 30.2°F 28.4°F 93% 30.61 in 1.0 miles Calm Calm - N/A   Clear
5:39 AM 28.4°F 28.4°F 100% 30.61 in 2.5 miles East 3.5 mph - N/A   Clear
5:46 AM 28.4°F 28.4°F 100% 30.61 in 5.0 miles East 3.5 mph - N/A   Clear
5:53 AM 30.0°F 28.9°F 96% 30.62 in 5.0 miles East 3.5 mph - N/A   Clear
6:38 AM 30.2°F 30.2°F 100% 30.63 in 6.0 miles East 3.5 mph - N/A   Scattered Clouds
6:49 AM 30.2°F 30.2°F 100% 30.63 in 6.0 miles East 4.6 mph - N/A   Mostly Cloudy
6:53 AM 30.0°F 30.0°F 100% 30.64 in 5.0 miles East 5.8 mph - N/A   Mostly Cloudy
6:57 AM 30.2°F 30.2°F 100% 30.63 in 1.8 miles East 5.8 mph - N/A   Overcast
7:00 AM 30.2°F 30.2°F 100% 30.64 in 0.8 miles East 5.8 mph - N/A   Overcast
7:07 AM 30.2°F 30.2°F 100% 30.64 in 0.5 miles ESE 4.6 mph - N/A Fog Light Freezing Fog
7:17 AM 30.2°F 30.2°F 100% 30.64 in 0.2 miles Calm Calm - N/A Fog Light Freezing Fog
7:51 AM 28.4°F 28.4°F 100% 30.65 in 0.5 miles Calm Calm - N/A Fog Light Freezing Fog
7:53 AM 28.9°F 28.0°F 96% 30.66 in 0.5 miles Calm Calm - N/A Fog Light Freezing Fog
8:00 AM 28.4°F 28.4°F 100% 30.66 in 0.2 miles Calm Calm - N/A Fog Light Freezing Fog
8:21 AM 28.4°F 26.6°F 93% 30.67 in 1.0 miles Calm Calm - N/A   Mist
8:24 AM 28.4°F 26.6°F 93% 30.67 in 1.5 miles Calm Calm - N/A   Scattered Clouds
8:32 AM 28.4°F 26.6°F 93% 30.67 in 3.0 miles Calm Calm - N/A   Partly Cloudy
8:53 AM 28.9°F 28.9°F 100% 30.69 in 4.0 miles Calm Calm - N/A   Clear
9:53 AM 34.0°F 34.0°F 100% 30.70 in 4.0 miles Calm Calm - N/A   Clear
10:53 AM 36.0°F 35.1°F 97% 30.70 in 5.0 miles East 5.8 mph - N/A   Clear
11:53 AM 39.9°F 37.0°F 89% 30.70 in 5.0 miles Calm Calm - N/A   Clear
12:53 PM 43.0°F 37.9°F 82% 30.69 in 5.0 miles Calm Calm - N/A   Haze
1:53 PM 45.0°F 36.0°F 71% 30.67 in 5.0 miles Calm Calm - N/A   Haze
2:53 PM 44.1°F 39.0°F 82% 30.68 in 5.0 miles SW 4.6 mph - N/A   Haze
3:53 PM 43.0°F 37.9°F 82% 30.68 in 4.0 miles WSW 4.6 mph - N/A   Haze
4:53 PM 37.9°F 36.0°F 93% 30.68 in 4.0 miles Calm Calm - N/A   Clear
5:49 PM 33.8°F 33.8°F 100% 30.67 in 1.8 miles Calm Calm - N/A   Clear
5:53 PM 33.1°F 33.1°F 100% 30.68 in 1.2 miles Calm Calm - N/A   Clear
6:09 PM 33.8°F 33.8°F 100% 30.67 in 2.0 miles Calm Calm - N/A   Clear
6:15 PM 32.0°F 32.0°F 100% 30.67 in 0.8 miles Calm Calm - N/A   Clear
6:27 PM 32.0°F 32.0°F 100% 30.68 in 0.8 miles Calm Calm - N/A   Mist
6:34 PM 32.0°F 30.2°F 93% 30.68 in 1.5 miles Calm Calm - N/A   Mostly Cloudy
6:38 PM 30.2°F 30.2°F 100% 30.68 in 2.5 miles Calm Calm - N/A   Scattered Clouds
6:45 PM 30.2°F 30.2°F 100% 30.68 in 3.0 miles Calm Calm - N/A   Scattered Clouds
6:53 PM 30.9°F 30.9°F 100% 30.69 in 3.0 miles Calm Calm - N/A   Partly Cloudy
7:26 PM 32.0°F 32.0°F 100% 30.68 in 2.5 miles Calm Calm - N/A   Mostly Cloudy
7:41 PM 30.2°F 30.2°F 100% 30.68 in 1.2 miles Calm Calm - N/A   Overcast
7:53 PM 30.9°F 30.9°F 100% 30.69 in 1.0 miles Calm Calm - N/A   Mist
8:01 PM 30.2°F 30.2°F 100% 30.68 in 0.5 miles Calm Calm - N/A Fog Light Freezing Fog
8:12 PM 30.2°F 30.2°F 100% 30.68 in 1.5 miles Calm Calm - N/A   Overcast
8:17 PM 30.2°F 30.2°F 100% 30.68 in 3.0 miles Calm Calm - N/A   Overcast
8:53 PM 32.0°F 30.9°F 96% 30.69 in 5.0 miles Calm Calm - N/A   Overcast
9:25 PM 30.2°F 30.2°F 100% 30.67 in 3.0 miles Calm Calm - N/A   Scattered Clouds
9:53 PM 30.0°F 28.9°F 96% 30.68 in 3.0 miles Calm Calm - N/A   Partly Cloudy
10:01 PM 28.4°F 28.4°F 100% 30.67 in 2.0 miles Calm Calm - N/A   Scattered Clouds
10:08 PM 30.2°F 30.2°F 100% 30.67 in 2.0 miles Calm Calm - N/A   Mostly Cloudy
10:11 PM 30.2°F 30.2°F 100% 30.67 in 1.2 miles Calm Calm - N/A   Mostly Cloudy
10:20 PM 30.2°F 30.2°F 100% 30.67 in 0.2 miles Calm Calm - N/A Fog Light Freezing Fog
10:30 PM 30.2°F 30.2°F 100% 30.67 in 0.2 miles Calm Calm - N/A Fog Light Freezing Fog
10:51 PM 30.2°F 30.2°F 100% 30.67 in 0.8 miles Calm Calm - N/A   Overcast
10:53 PM 30.0°F 30.0°F 100% 30.68 in 0.8 miles Calm Calm - N/A   Overcast
10:57 PM 30.2°F 30.2°F 100% 30.67 in 1.5 miles Calm Calm - N/A   Overcast
11:02 PM 30.2°F 30.2°F 100% 30.67 in 3.0 miles Calm Calm - N/A   Overcast
11:53 PM 32.0°F 32.0°F 100% 30.68 in 3.0 miles Calm Calm - N/A   Overcast
Moon Phase
Jan. 15 Jan. 18 Jan. 26 Feb. 03 Feb. 10
Sunrise:08:02 AM (PST) Moon Rise:09:47 AM (PST)1/15
Sunset:04:53 PM (PST) Moon Set:10:15 PM (PST)1/15

Copyright © 2014 The Weather Underground, Inc.